Location: Newark
(16.3678°N, 77.8722°E)
Time: 11:18:56
(UTC+00:00)

Tiros 1 despin weight - All Passes

Search period start: 07 December 2019 00:00
Search period end: 17 December 2019 00:00
Orbit: 594 x 642 km, 48.2° (Epoch: 06 December)

Date Brightness Start Highest point End Pass type
(mag) Time Alt. Az. Time Alt. Az. Time Alt. Az.
07 Dec - 07:43:44 10° N 07:46:50 19° NE 07:49:56 10° E daylight
07 Dec - 09:24:15 10° WNW 09:28:21 38° SW 09:32:29 10° SSE daylight
07 Dec - 21:40:29 10° S 21:43:58 21° SE 21:47:26 10° ENE night (unlit)
07 Dec - 23:21:14 10° WSW 23:25:21 33° NW 23:29:25 10° NNE visible
08 Dec - 07:59:18 10° NNW 08:03:30 44° NE 08:07:43 10° ESE daylight
08 Dec - 09:42:18 10° W 09:44:46 15° SW 09:47:15 10° SSW daylight
08 Dec - 21:55:55 10° SSW 22:00:25 55° SE 22:04:52 10° NE night (unlit)
08 Dec - 23:39:32 10° WNW 23:42:05 15° NW 23:44:36 10° N visible
09 Dec - 06:36:48 10° NNE 06:38:17 11° NE 06:39:47 10° ENE daylight
09 Dec - 08:15:39 10° NW 08:20:01 69° SW 08:24:26 10° SSE daylight
09 Dec - 20:33:44 10° SSE 20:35:39 12° SE 20:37:33 10° ESE night (unlit)
09 Dec - 22:12:24 10° SW 22:16:55 56° NW 22:21:23 10° NNE night (unlit)
10 Dec - 06:51:22 10° NNW 06:55:04 26° NE 06:58:47 10° ESE daylight
10 Dec - 08:32:50 10° WNW 08:36:28 25° SW 08:40:07 10° S daylight
10 Dec - 20:47:58 10° SSW 20:52:04 31° SE 20:56:07 10° ENE night (unlit)
10 Dec - 22:29:53 10° W 22:33:33 23° NW 22:37:11 10° N night (unlit)
11 Dec - 07:07:18 10° NW 07:11:40 67° NE 07:16:03 10° SE daylight
11 Dec - 21:03:54 10° SW 21:08:32 84° SE 21:13:06 10° NE night (unlit)
11 Dec - 22:49:34 10° NW 22:50:22 10° NW 22:51:10 10° NNW night (unlit)
12 Dec - 05:43:48 10° N 05:46:35 16° NE 05:49:21 10° E daylight
12 Dec - 07:23:58 10° WNW 07:28:09 44° SW 07:32:21 10° SSE daylight
12 Dec - 19:40:30 10° S 19:43:44 19° SE 19:46:57 10° E night (unlit)
12 Dec - 21:20:47 10° WSW 21:25:04 38° NW 21:29:20 10° NNE night (unlit)
13 Dec - 05:59:11 10° NNW 06:03:16 37° NE 06:07:22 10° ESE daylight
13 Dec - 07:41:43 10° W 07:44:34 17° SW 07:47:26 10° SSW daylight
13 Dec - 19:55:42 10° SSW 20:00:10 47° SE 20:04:35 10° NE night (unlit)
13 Dec - 21:38:47 10° W 21:41:47 17° NW 21:44:45 10° N night (unlit)
14 Dec - 06:15:26 10° NW 06:19:49 81° SW 06:24:13 10° SE daylight
14 Dec - 18:34:23 10° SE 18:35:24 11° SE 18:36:26 10° ESE night (unlit)
14 Dec - 20:12:02 10° SW 20:16:39 66° NW 20:21:13 10° NE night (unlit)
15 Dec - 04:51:19 10° N 04:54:50 23° NE 04:58:20 10° E daylight
15 Dec - 06:32:27 10° WNW 06:36:16 29° SW 06:40:05 10° S daylight
15 Dec - 18:47:51 10° S 18:51:48 27° SE 18:55:44 10° ENE night (unlit)
15 Dec - 20:29:20 10° WSW 20:33:15 27° NW 20:37:09 10° NNE night (unlit)
16 Dec - 05:07:08 10° NNW 05:11:27 57° NE 05:15:46 10° SE daylight
16 Dec - 06:51:28 10° WSW 06:52:40 11° SW 06:53:52 10° SW daylight
16 Dec - 19:03:37 10° SW 19:08:15 72° SE 19:12:51 10° NE night (unlit)
16 Dec - 20:48:12 10° WNW 20:50:02 12° NW 20:51:52 10° NNW night (unlit)
